Weather reports worldwide

Advertisment
Cozzo Spadaro, Italy (16480): temperature & dewpoint: 12.09.2019 06:00:00 - 18.09.2019 06:00:00 (CEST)Cozzo Spadaro, Italy (16480): wind speed: 12.09.2019 06:00:00 - 18.09.2019 06:00:00 (CEST)Cozzo Spadaro, Italy (16480): wind direction: 12.09.2019 06:00:00 - 18.09.2019 06:00:00 (CEST)Cozzo Spadaro, Italy (16480): reduced air pressure: 12.09.2019 06:00:00 - 18.09.2019 06:00:00 (CEST)Cozzo Spadaro, Italy (16480): visibility: 12.09.2019 06:00:00 - 18.09.2019 06:00:00 (CEST)Cozzo Spadaro, Italy (16480): sunshine duration: 12.09.2019 06:00:00 - 18.09.2019 06:00:00 (CEST)
Date & Time tt [°C] td [°C] ff [km/h] ff [kn] dd ppp [hPa] vv [km] sd [min]
18.09.2019 06:00:00 - - - - - - - -
18.09.2019 05:00:00 - - - - - - - -
18.09.2019 04:00:00 - - - - - - - -
18.09.2019 03:00:00 - - - - - - - -
18.09.2019 02:00:00 - - - - - - - -
18.09.2019 01:00:00 - - - - - - - -
18.09.2019 00:00:00 - - - - - - - -
17.09.2019 23:00:00 - - - - - - - -
17.09.2019 22:00:00 - - - - - - - -
17.09.2019 21:00:00 - - - - - - - -
17.09.2019 20:00:00 25,4 21,1 11 6 W 1013,8 16 0
17.09.2019 19:00:00 26,2 21,2 15 8 W 1013,9 18 36
17.09.2019 18:00:00 27,0 21,7 16 9 W 1013,9 20 60
17.09.2019 17:00:00 27,4 21,4 18 10 W 1014,3 20 60
17.09.2019 16:00:00 28,2 21,0 18 10 W 1014,8 20 60
17.09.2019 15:00:00 28,8 19,4 15 8 W 1015,0 20 60
17.09.2019 14:00:00 29,6 18,7 13 7 WSW 1015,7 20 60
17.09.2019 13:00:00 29,4 17,9 9 5 SW 1015,9 20 60
17.09.2019 12:00:00 28,8 21,1 5 3 SSW 1015,9 20 60
17.09.2019 11:00:00 28,0 21,1 5 3 SSE 1016,0 20 60
17.09.2019 10:00:00 26,8 21,8 2 1 WSW 1015,9 18 60
17.09.2019 09:00:00 26,0 21,9 0 0 N 1015,9 15 54
17.09.2019 08:00:00 23,4 18,7 0 0 N 1016,0 15 0
17.09.2019 07:00:00 - - - - - - - -
17.09.2019 06:00:00 - - - - - - - -
17.09.2019 05:00:00 - - - - - - - -
17.09.2019 04:00:00 - - - - - - - -
17.09.2019 03:00:00 - - - - - - - -
17.09.2019 02:00:00 - - - - - - - -
17.09.2019 01:00:00 - - - - - - - -
17.09.2019 00:00:00 - - - - - - - -
16.09.2019 23:00:00 - - - - - - - -
16.09.2019 22:00:00 - - - - - - - -
16.09.2019 21:00:00 - - - - - - - -
16.09.2019 20:00:00 25,4 21,1 5 3 W 1016,3 25 -
16.09.2019 19:00:00 26,4 21,6 8 4 W 1016,4 25 18
16.09.2019 18:00:00 27,0 21,1 9 5 W 1016,9 25 60
16.09.2019 17:00:00 27,6 21,6 9 5 WSW 1016,9 25 60
16.09.2019 16:00:00 28,4 20,9 8 4 SW 1017,1 25 60
16.09.2019 15:00:00 29,0 21,0 9 5 S 1017,8 25 60
16.09.2019 14:00:00 29,2 21,2 8 4 SSE 1018,2 25 60
16.09.2019 13:00:00 29,0 23,0 8 4 SE 1018,8 25 60
16.09.2019 12:00:00 29,0 23,0 9 5 ESE 1018,9 25 60
16.09.2019 11:00:00 27,8 22,3 5 3 E 1018,7 25 60
16.09.2019 10:00:00 27,0 21,5 5 3 NE 1018,7 25 60
16.09.2019 09:00:00 25,6 21,9 5 3 NNE 1018,0 25 60
16.09.2019 08:00:00 23,0 21,3 2 1 NNE 1018,0 25 6
16.09.2019 07:00:00 - - - - - - - -
16.09.2019 06:00:00 - - - - - - - -
16.09.2019 05:00:00 - - - - - - - -
16.09.2019 04:00:00 - - - - - - - -
16.09.2019 03:00:00 - - - - - - - -
16.09.2019 02:00:00 - - - - - - - -
16.09.2019 01:00:00 - - - - - - - -
16.09.2019 00:00:00 - - - - - - - -
15.09.2019 23:00:00 - - - - - - - -
15.09.2019 22:00:00 - - - - - - - -
15.09.2019 21:00:00 - - - - - - - -
15.09.2019 20:00:00 25,0 21,7 5 3 W 1019,4 25 -
15.09.2019 19:00:00 26,0 21,9 8 4 W 1019,3 25 30
15.09.2019 18:00:00 26,4 21,6 8 4 WSW 1019,9 25 60
15.09.2019 17:00:00 27,2 21,5 9 5 SW 1019,9 25 60
15.09.2019 16:00:00 28,4 21,4 8 4 SW 1020,8 25 60
15.09.2019 15:00:00 28,6 21,6 9 5 SSE 1020,9 25 60
15.09.2019 14:00:00 29,0 22,0 8 4 SSE 1021,3 20 60
15.09.2019 13:00:00 29,0 21,5 8 4 SE 1021,8 25 60
15.09.2019 12:00:00 28,6 21,4 8 4 E 1021,9 25 60
15.09.2019 11:00:00 28,0 21,3 8 4 ENE 1021,9 25 60
15.09.2019 10:00:00 26,8 19,4 8 4 NE 1021,9 25 60
15.09.2019 09:00:00 26,0 17,9 8 4 NE 1021,9 25 60
15.09.2019 08:00:00 22,8 16,1 4 2 N 1021,8 25 0
15.09.2019 07:00:00 - - - - - - - -
15.09.2019 06:00:00 - - - - - - - -
15.09.2019 05:00:00 - - - - - - - -
15.09.2019 04:00:00 - - - - - - - -
15.09.2019 03:00:00 - - - - - - - -
15.09.2019 02:00:00 - - - - - - - -
15.09.2019 01:00:00 - - - - - - - -
15.09.2019 00:00:00 - - - - - - - -
14.09.2019 23:00:00 - - - - - - - -
14.09.2019 22:00:00 - - - - - - - -
14.09.2019 21:00:00 - - - - - - - -
14.09.2019 20:00:00 25,4 21,1 4 2 W 1021,0 20 -
14.09.2019 19:00:00 26,4 19,5 8 4 W 1020,9 25 30
14.09.2019 18:00:00 27,8 16,7 5 3 WSW 1020,9 25 60
14.09.2019 17:00:00 28,0 18,4 5 3 SW 1021,2 25 60
14.09.2019 16:00:00 28,8 17,4 9 5 SW 1021,8 25 60
14.09.2019 15:00:00 29,6 17,8 11 6 E 1021,8 25 60
14.09.2019 14:00:00 29,4 17,9 15 8 E 1022,0 25 60
14.09.2019 13:00:00 29,2 20,4 13 7 E 1022,4 25 60
14.09.2019 12:00:00 29,0 20,7 9 5 ENE 1022,6 25 60
14.09.2019 11:00:00 28,6 21,1 11 6 NE 1022,5 25 60
14.09.2019 10:00:00 27,6 21,6 11 6 NNE 1022,0 25 60
14.09.2019 09:00:00 26,6 22,0 9 5 NNE 1021,9 25 60
14.09.2019 08:00:00 23,6 20,2 9 5 N 1022,0 20 6
14.09.2019 07:00:00 - - - - - - - -
14.09.2019 06:00:00 - - - - - - - -
14.09.2019 05:00:00 - - - - - - - -
14.09.2019 04:00:00 - - - - - - - -
14.09.2019 03:00:00 - - - - - - - -
14.09.2019 02:00:00 - - - - - - - -
14.09.2019 01:00:00 - - - - - - - -
14.09.2019 00:00:00 - - - - - - - -
13.09.2019 23:00:00 - - - - - - - -
13.09.2019 22:00:00 - - - - - - - -
13.09.2019 21:00:00 - - - - - - - -
13.09.2019 20:00:00 26,2 20,5 2 1 NNW 1021,9 20 0
13.09.2019 19:00:00 27,0 17,8 2 1 NE 1021,9 25 30
13.09.2019 18:00:00 28,0 18,1 2 1 ESE 1021,9 25 60
13.09.2019 17:00:00 29,0 19,6 9 5 E 1021,9 25 60
13.09.2019 16:00:00 29,2 21,2 8 4 ENE 1022,0 25 60
13.09.2019 15:00:00 29,6 21,0 15 8 ENE 1022,3 25 60
13.09.2019 14:00:00 29,8 20,9 16 9 ENE 1022,8 20 60
13.09.2019 13:00:00 29,6 21,8 15 8 ENE 1022,6 25 60
13.09.2019 12:00:00 28,8 20,3 16 9 ENE 1022,9 25 60
13.09.2019 11:00:00 28,2 19,7 13 7 NE 1022,9 20 60
13.09.2019 10:00:00 27,6 23,2 16 9 NE 1022,8 20 60
13.09.2019 09:00:00 26,6 21,8 8 4 NE 1022,7 20 60
13.09.2019 08:00:00 24,4 22,7 4 2 NNE 1022,8 20 12
13.09.2019 07:00:00 - - - - - - - -
13.09.2019 06:00:00 - - - - - - - -
13.09.2019 05:00:00 - - - - - - - -
13.09.2019 04:00:00 - - - - - - - -
13.09.2019 03:00:00 - - - - - - - -
13.09.2019 02:00:00 - - - - - - - -
13.09.2019 01:00:00 - - - - - - - -
13.09.2019 00:00:00 - - - - - - - -
12.09.2019 23:00:00 - - - - - - - -
12.09.2019 22:00:00 - - - - - - - -
12.09.2019 21:00:00 - - - - - - - -
12.09.2019 20:00:00 25,8 21,7 2 1 NNW 1021,9 18 0
12.09.2019 19:00:00 26,4 21,2 2 1 SE 1021,7 18 12
12.09.2019 18:00:00 27,8 21,3 2 1 ESE 1021,6 20 60
12.09.2019 17:00:00 28,4 21,9 9 5 ESE 1021,8 20 60
12.09.2019 16:00:00 28,8 22,3 11 6 E 1021,9 20 60
12.09.2019 15:00:00 28,8 22,3 13 7 E 1022,0 20 60
12.09.2019 14:00:00 29,0 22,0 15 8 E 1022,0 20 60
12.09.2019 13:00:00 29,0 22,7 13 7 E 1022,0 20 60
12.09.2019 12:00:00 28,6 22,6 15 8 E 1022,0 20 60
12.09.2019 11:00:00 28,0 22,9 13 7 ENE 1022,0 20 60
12.09.2019 10:00:00 27,4 23,0 13 7 NE 1021,8 20 60
12.09.2019 09:00:00 26,0 23,3 8 4 NNE 1021,0 18 48
12.09.2019 08:00:00 24,2 22,5 5 3 N 1021,0 18 0
12.09.2019 07:00:00 - - - - - - - -
12.09.2019 06:00:00 - - - - - - - -

tt = temperature
td = dewpoint
ff = wind speed
dd = wind direction
ppp = reduced air pressure
vv = visibility
sd = sunshine duration

Next stations